Location: Capelle
(50.3413°N, 1.9974°E)
Time: 21:01:47
(UTC+00:00)

Cosmos 2237 Rocket - Pass Details

Date: 12 January 2026
Orbit: 834 x 849 km, 71.0° (Epoch: 16 February)

Event Time Altitude Azimuth Distance (km) Brightness Sun altitude
Rises 17:46:16 0° 253° (WSW) 3,377 7.3 -14.3°
Reaches altitude 10° 17:49:11 10° 267° (W) 2,447 5.9 -14.7°
Maximum altitude 17:53:39 24° 320° (NW) 1,683 4.0 -15.4°
Drops below altitude 10° 17:58:09 10° 13° (NNE) 2,460 4.4 -16.1°
Enters shadow 17:59:17 - 20° (NNE) 2,804 4.6 -16.2°
